DW8151 Weather Reports


time (UTC)temp
F
wind
direction
speed
knots
gust
knots
rain 1hr
in
rain 24hr
in
rain mn
in
humidity
%
barometer
mb
20260503193119 81 250 1.7 0.0 0.00 0.00 0.00 39 1007.4
20260503190112 79 360 0.9 0.0 0.00 0.00 0.00 38 1007.8
20260503183124 77 338 0.9 0.0 0.00 0.00 0.00 42 1008.0
20260503180128 73 299 2.6 0.0 0.00 0.00 0.00 49 1008.4
20260503173128 70 273 1.7 0.0 0.00 0.00 0.00 55 1008.5
20260503170121 68 345 1.7 0.0 0.00 0.00 0.00 59 1008.6
20260503160139 63 30 0.9 0.0 0.00 0.00 0.00 68 1008.9
20260503150140 55 135 0.0 0.0 0.00 0.00 0.00 92 1009.0
20260503140132 52 135 0.0 0.0 0.00 0.00 0.00 89 1008.8
20260503130115 51 135 0.0 0.0 0.00 0.00 0.00 88 1008.4
20260503120118 52 135 0.0 0.0 0.00 0.00 0.00 87 1008.8
20260503110122 54 135 0.0 0.0 0.00 0.00 0.00 86 1008.9
20260503100135 55 135 0.0 0.0 0.00 0.00 0.00 85 1009.0
20260503090131 57 135 0.0 0.0 0.00 0.00 0.00 84 1009.3
20260503080114 58 135 0.0 0.0 0.00 0.00 0.00 81 1009.3
20260503070117 60 135 0.0 0.0 0.00 0.00 0.02 77 1009.4
20260503060115 62 135 0.0 0.0 0.00 0.00 0.02 75 1009.4
20260503053119 62 60 0.0 0.0 0.00 0.00 0.02 73 1009.2
20260503050110 63 60 0.0 0.0 0.00 0.00 0.02 71 1009.7
20260503043118 64 182 0.0 0.0 0.00 0.00 0.02 69 1009.7
20260503040126 65 182 0.0 0.0 0.00 0.00 0.02 67 1009.4
20260503033113 66 182 0.0 0.0 0.00 0.00 0.02 64 1009.4
20260503030158 66 188 2.6 0.0 0.00 0.00 0.02 63 1009.1
20260503023118 69 213 6.1 0.0 0.00 0.00 0.02 59 1008.8
20260503020122 72 188 2.6 0.0 0.00 0.00 0.02 51 1008.1
20260503013135 73 186 0.9 0.0 0.00 0.00 0.02 51 1008.0
20260503010127 72 275 0.0 0.0 0.00 0.00 0.02 51 1008.0
20260503003203 72 255 0.0 0.0 0.00 0.00 0.02 53 1007.9
20260503000133 72 273 1.7 0.0 0.00 0.00 0.02 51 1008.2
20260502233136 72 261 0.9 0.0 0.00 0.00 0.02 50 1008.4
20260502230128 71 298 0.9 0.0 0.00 0.00 0.02 50 1008.9
20260502223127 69 11 0.9 0.0 0.00 0.00 0.02 53 1009.4
20260502220121 68 78 0.9 0.0 0.00 0.00 0.02 55 1009.9
20260502213126 66 261 1.7 0.0 0.00 0.00 0.02 57 1010.2
20260502210110 66 331 2.6 0.0 0.00 0.00 0.02 57 1010.7
20260502203113 64 19 1.7 0.0 0.00 0.00 0.02 60 1011.0
20260502200140 64 45 2.6 0.0 0.00 0.00 0.02 61 1011.3